Starlink 1273

operational
NORAD ID: 45367 Int'l Des: 2020-019 Owner: SPXS Country: US Constellation: starlink
LEOCIRCULARSTARLINK_TYPE

关于 Starlink 1273

正在加载描述...

实时位置

正在加载3D地球...

即将过境

高度历史

Altitude vs Time

uPlot chart will show altitude changes over time

两行轨道根数

1 45367U 20019H 25304.60306025 .00001290 00000-0 10546-3 0 9994
2 45367 53.0563 26.1106 0001449 102.4453 257.6698 15.06419203310279
Epoch: Oct 31, 2025 • Age: 4 hours

当前状态

高度 553.1 km
速度 7.59 km/s
星下点 -20.48°S, 97.26°W
发射日期 Mar 18, 2020
运行时间 5.6 years
类型 internet

技术详情

分类 Payload
质量 260.00 kg
干质量 248.00 kg
总质量 260.00 kg
长度 0.20 m
直径 2.80 m
跨度 9.00 m
形状 Box + pan
制造商 SPXS
平台类型 Starlink
阶段状态 In Orbit
所有者/国家 SPXS/US

大型星座

Loading constellations...